Location: Newark
(33.6439°N, 114.9881°W)
Time: 23:04:22
(UTC+00:00)

Transit 2A - Visible Passes

Search period start: 20 July 2019 00:00
Search period end: 30 July 2019 00:00
Orbit: 594 x 964 km, 66.7° (Epoch: 20 July)

Date Brightness Start Highest point End Pass type
(mag) Time Alt. Az. Time Alt. Az. Time Alt. Az.
20 Jul 6.0 10:19:09 10° NNW 10:24:10 69° ENE 10:26:43 26° SE visible
21 Jul 6.8 09:45:12 10° NNW 09:50:00 43° ENE 09:51:17 35° E visible
21 Jul 7.5 11:29:50 10° WNW 11:31:38 15° W 11:31:38 15° W visible
22 Jul 7.5 09:11:24 10° N 09:15:45 28° NE 09:16:27 27° ENE visible
22 Jul 7.4 10:54:48 10° NW 10:56:50 19° WNW 10:56:50 19° WNW visible
23 Jul 8.1 08:37:50 10° N 08:41:25 19° NE 08:41:57 19° ENE visible
23 Jul 7.3 10:20:13 10° NW 10:22:21 23° NW 10:22:21 23° NW visible
24 Jul 8.5 08:04:42 10° NNE 08:07:01 13° NE 08:07:41 13° NE visible
24 Jul 7.4 09:45:54 10° NNW 09:48:06 25° NW 09:48:06 25° NW visible
25 Jul 7.6 09:11:46 10° NNW 09:14:01 26° NNW 09:14:01 26° NNW visible
26 Jul 7.8 08:37:47 10° NNW 08:40:03 25° N 08:40:03 25° N visible
27 Jul 8.1 08:03:58 10° N 08:06:11 21° NNE 08:06:11 21° NNE visible
28 Jul 8.3 07:30:21 10° N 07:32:24 17° NNE 07:32:24 17° NNE visible
29 Jul 8.5 06:57:06 10° NNE 06:58:40 13° NE 06:58:40 13° NE visible
29 Jul 8.5 08:38:34 10° NNW 08:39:07 13° NW 08:39:07 13° NW visible
